305  
ASUS44 KSJT 222002  
RWRSJT  
WEST CENTRAL TEXAS REGIONAL WEATHER ROUNDUP  
NATIONAL WEATHER SERVICE SAN ANGELO TX  
300 PM CDT SUN APR 22 2018  
 
NOTE: "FAIR" INDICATES FEW OR NO CLOUDS BELOW 12,000 FEET WITH NO  
SIGNIFICANT WEATHER AND/OR S TO VISIBILITY
.  
 
TXZ049-054-064>066-071>073-076>078-098-099-113-114-127-128-139-140-  
154-155-168>170-222100   
..LOCATIONS ACROSS WEST CENTRAL TEXAS
 
 
 
CITY SKY/WX TMP DP RH WIND PRES REMARKS
 
SAN ANGELO SUNNY 73 40 30 N9 30.11F  
ABILENE SUNNY 67 41 38 N8G22 30.12F  
DYESS AFB SUNNY 68 37 32 N13G18 30.11F  
JUNCTION SUNNY 75 41 29 MISG 30.09F  
SWEETWATER SUNNY 66 38 34 NW13 30.15F  
BROWNWOOD NOT AVBL  
COLEMAN CLEAR 69 40 34 N17 30.11F  
SONORA SUNNY 72 37 28 VRB6 30.14F  
OZONA FAIR 73 36 25 E8 30.13F  
BRADY SUNNY 70 39 32 N12G21 30.10F  

 
 
TEXAS PANHANDLE/OKLAHOMA PANHANDLE  
 
CITY SKY/WX TMP DP RH WIND PRES REMARKS
 
AMARILLO CLOUDY 57 40 52 NW9 30.18F  
BORGER MOSUNNY 57 38 48 N14 30.18F  
CANADIAN SUNNY 63 40 43 N13G18 30.14F  
DALHART CLOUDY 51 39 63 E3 30.19F  
DUMAS CLOUDY 51 39 64 NE8 30.19F  
GUYMON NOT AVBL  
HEREFORD MOCLDY 63 45 51 NE13G18 30.17F  
PAMPA PTCLDY 58 39 49 N13 30.18F  
PERRYTON MOSUNNY 58 40 51 N14 30.15F  

 
 
SOUTHERN PANHANDLE/SOUTH PLAINS/ROLLING PLAINS  
 
CITY SKY/WX TMP DP RH WIND PRES REMARKS
 
LUBBOCK PTSUNNY 66 38 35 VRB6 30.14F  
SNYDER SUNNY 67 37 33 NW10G17 30.13F  
CHILDRESS MOSUNNY 64 39 39 N18G24 30.15F  
SEMINOLE CLEAR 67 34 29 W3 30.16F  

 
 
PERMIAN BASIN  
 
CITY SKY/WX TMP DP RH WIND PRES REMARKS
 
MIDLAND SUNNY 70 37 29 MISG 30.14F  
ODESSA SUNNY 70 34 26 CALM 30.14F  
WINK SUNNY 71 36 27 VRB3 30.11F  

 
 
FAR WEST/SOUTHWEST MOUNTAINS/TRANS PECOS  
 
CITY SKY/WX TMP DP RH WIND PRES REMARKS
 
ALPINE CLOUDY 64 38 39 CALM 30.22S  
DRYDEN N/A 74 40 29 MISG 30.07F  
EL PASO CLOUDY 72 31 22 SE10 30.09F  
FORT STOCKTON CLOUDY 66 40 38 CALM 30.14F  
GUADALUPE PASS CLOUDY 62 33 33 SW6 30.20F  
MARFA CLOUDY 71 28 20 W7 30.17F  
PECOS CLOUDY 67 40 37 S3 30.15F  

 
 
DALLAS/FORT WORTH METROPLEX  
 
CITY SKY/WX TMP DP RH WIND PRES REMARKS
 
DFW AIRPORT PTSUNNY 66 44 45 NW20G26 30.04F  
FTW MEACHAM MOSUNNY 67 46 47 W20G29 30.06F  
DAL-EXECUTIVE MOSUNNY 67 44 43 NW18G26 30.04F  
GRAND PRAIRIE SUNNY 66 43 42 W9G25 30.07F  
ADDISON PTSUNNY 64 43 45 W16G23 30.06F  
MESQUITE MOCLDY 66 45 45 W15G23 30.04F  
LANCASTER CLEAR 65 45 48 NW14G26 30.05F  

 
 
NORTH CENTRAL TEXAS  
 
CITY SKY/WX TMP DP RH WIND PRES REMARKS
 
SHRMAN/DENISON MOCLDY 62 47 58 NW18G24 30.06F  
GAINESVILLE CLOUDY 62 43 50 NW15G25 30.07F  
BRIDGEPORT PTCLDY 64 44 48 NW10G16 30.10F  
DENTON PTSUNNY 64 46 52 NW20 30.05F  
WAXAHACHIE PTCLDY 65 47 51 NW14G24 30.06F  
GRANBURY PTCLDY 65 44 46 NW18G26 30.10F  

 
 
WESTERN NORTH TEXAS  
 
CITY SKY/WX TMP DP RH WIND PRES REMARKS
 
WICHITA FALLS PTSUNNY 65 43 44 N16G24 30.09F  
VERNON PTCLDY 67 40 37 N10G20 30.12F  
BRECKENRIDGE PTCLDY 69 38 32 NW14G22 30.11F  
COMANCHE SUNNY 68 41 37 NW17G24 30.10F  

 
 
CENTRAL AND SOUTH CENTRAL TEXAS  
 
CITY SKY/WX TMP DP RH WIND PRES REMARKS
 
AUSTIN/BERGSTM MOSUNNY 73 50 44 VRB5 30.05F  
WACO MOSUNNY 69 46 43 W17 30.07F  
HILLSBORO PTCLDY 67 48 52 NW18 30.07F  
TEMPLE SUNNY 69 47 45 N17G23 30.07F  
KILLEEN-GRAY SUNNY 68 39 34 NW16G23 30.08F  
FORT HOOD SUNNY 69 45 40 NW13G24 30.04F  
GEORGETOWN SUNNY 73 49 42 N8 30.07F  
LAGO VISTA FAIR 74 45 34 NW12G17 30.07F  
SAN MARCOS SUNNY 76 48 37 N7G17 30.06F  
NEW BRAUNFELS SUNNY 76 47 35 VRB7G20 30.05F  
RANDOLPH AFB SUNNY 74 48 38 NW6 30.05F  
SAN ANTONIO MOSUNNY 76 46 34 VRB6 30.06F  
STINSON SUNNY 79 49 34 NW5 30.04F  
PLEASANTON NOT AVBL  
LA GRANGE SUNNY 70 53 54 NW13 30.04F  
GIDDINGS CLEAR 67 49 52 NW13 30.07F  

 
 
EAST TEXAS  
 
CITY SKY/WX TMP DP RH WIND PRES REMARKS
 
PARIS CLOUDY 58 47 66 W14 30.02S  
CLARKSVILLE NOT AVBL  
TYLER MOSUNNY 65 47 52 NW15G21 30.01F  
LONGVIEW PTSUNNY 66 53 63 NW18 29.98F  
PALESTINE MOCLDY 67 51 54 W14G21 30.04F  
NACOGDOCHES N/A 66 53 63 W10G18 30.00F  

 
 
TEXAS HILL COUNTRY AND EDWARDS PLATEAU  
 
CITY SKY/WX TMP DP RH WIND PRES REMARKS
 
LLANO CLEAR 73 43 33 N10 30.10F  
HORSESHOE BAY FAIR 74 45 36 N7 30.07F  
KERRVILLE SUNNY 76 41 28 N6 30.08F  
FREDERICKSBRG NOT AVBL  
ROCKSPRINGS NOT AVBL  
HONDO SUNNY 80 46 30 VRB6 30.06F  
UVALDE CLEAR 78 44 29 W6 30.05F  
DEL RIO SUNNY 79 43 27 MISG 30.03F  

 
 
SOUTHEAST TEXAS  
 
CITY SKY/WX TMP DP RH WIND PRES REMARKS
 
COLLEGE STN MOSUNNY 67 51 56 NW12G21 30.05F  
CALDWELL PTCLDY 69 51 52 N14G23 30.06F  
CROCKETT NOT AVBL  
BRENHAM MOSUNNY 69 53 55 NW14 30.06F  
HUNTSVILLE MOSUNNY 68 51 54 NW12G17 30.03F  
CONROE MOSUNNY 68 54 60 NW13G23 30.03F  
HOUSTON BUSH FAIR 70 54 56 NW12 30.02F  
HOUSTON HOBBY FAIR 70 55 59 NW10G24 30.01F  
PERLAND FAIR 72 54 53 NW12G22 30.02F  
WHARTON CLEAR 69 52 53 N14G20 30.04F  

 
 
THE UPPER TEXAS COAST  
 
CITY SKY/WX TMP DP RH WIND PRES REMARKS
 
ORANGE CLOUDY 62 57 84 NW8G17 30.01F  
PORT ARTHUR CLOUDY 62 54 74 NW13G23 30.00S  
GALVESTON FAIR 71 60 68 N14 30.01F  
ANGLETON FAIR 73 56 54 N15G21 30.01F  
BAY CITY FAIR 73 56 56 N13G18 30.01F  

 
 
TEXAS COASTAL BEND, RIO GRANDE PLAINS DEEP SOUTH TEXAS  
 
CITY SKY/WX TMP DP RH WIND PRES REMARKS
 
VICTORIA SUNNY 77 53 43 NW12G21 30.03F  
BEEVILLE FAIR 76 54 46 N13 30.03F  
ROCKPORT SUNNY 81 53 37 N15 30.00F  
PORT ARANSAS NOT AVBL  
PORT LAVACA CLEAR 76 54 46 N14 30.03F  
CORPUS CHRISTI MOSUNNY 83 53 35 N17G23 29.99F  
KINGSVILLE NAS SUNNY 85 52 32 N14 29.99F  
COTULLA SUNNY 81 46 29 NE10G17 30.04F  
LAREDO SUNNY 82 47 29 N10G17 30.02F  
BROWNSVILLE CLOUDY 80 69 69 NE14G21 30.00F  
PORT ISABEL CLOUDY 74 65 73 NE14 30.00F  
HEBBRONVILLE NOT AVBL  
MCALLEN MOSUNNY 86 67 52 NE8 29.99F  
WESLACO SUNNY 81 66 61 NE12 29.99F  
FALFURRIAS CLEAR 85 48 27 N13G20 29.98F  
EDINBURG PTCLDY 89 59 36 E3 29.98F  

 
 
 
CLICK HERE TO GO TO PREVIOUS BULLETINS.

The Nexlab TX Page Main Text Page